Regional Weather Roundup
Issued by NWS

Home | Current Version | Previous Version | Graphics & Text | Print | Product List | Glossary On
Versions: 1 2 3 4 5 6 7 8 9 10 11 12 13 14 15 16 17 18 19 20 21 22 23 24 25 26 27 28 29 30 31 32 33 34 35 36 37 38 39 40 41 42 43 44 45 46 47 48 49 50
000
ASUS43 KDTX 220810
RWRMI
MICHIGAN HOURLY REGIONAL WEATHER ROUNDUP
NATIONAL WEATHER SERVICE DETROIT/PONTIAC MI
400 AM EDT THU JUN 22 2017

NOTE: "FAIR" INDICATES FEW OR NO CLOUDS BELOW 12,000 FEET WITH NO
SIGNIFICANT WEATHER AND/OR OBSTRUCTION TO VISIBILITY.

MIZ047>049-052>055-059>063-066>070-074>076-081>083-220900-
SOUTHEAST LOWER MICHIGAN

CITY           SKY/WX    TMP DP  RH WIND       PRES   REMARKS
ADRIAN         PTCLDY    62  54  74 S3        29.95F
ALMA           CLEAR     61  56  83 CALM      29.89F
ANN ARBOR      MOCLDY    55  55 100 CALM      29.95S
BAD AXE        CLEAR     59  55  85 S6        29.92F
CARO           CLEAR     56  55  94 CALM      29.91F
DETROIT CITY   CLEAR     63  57  81 CALM      29.95F
DETROIT        MOCLDY    64  58  80 S3        29.95F
FLINT          PTCLDY    57  54  89 S7        29.93F
GROSSE ILE     CLOUDY    68  59  72 S7        29.94S
HILLSDALE      PTCLDY    63  52  67 SE6       29.94S
HOWELL         CLOUDY    62  55  79 S6        29.94S

CITY           SKY/WX    TMP DP  RH WIND       PRES   REMARKS
JACKSON        PTCLDY    64  52  64 SE8       29.93F
LAMBERTVILLE   MOCLDY    64  53  68 SE3       29.94F
LANSING        CLEAR     65  53  65 SE8       29.91F
LAPEER         NOT AVBL
MASON          MOCLDY    62  55  76 SE6       29.92F
MONROE         CLOUDY    66  55  67 SE3       29.94S
MT. CLEMENS    CLEAR     61  61 100 S6        29.94S
PONTIAC        CLEAR     62  58  86 S5        29.94S
PORT HOPE        N/A     62  54  74 CALM      29.90F
PORT HURON     CLEAR     54  52  94 CALM      29.96S
TRI CITIES     CLEAR     63  56  78 S13       29.89F
MIDLAND        FAIR      60  54  79 CALM      29.88F
TROY           CLEAR     62  55  76 CALM      29.97R
SAGINAW HB     CLEAR     59  52  77 S7        29.89F
$$
MIZ043>046-050>051-056>058-064>065-071>073-077>080-220900-
SOUTHWEST LOWER MICHIGAN

CITY           SKY/WX    TMP DP  RH WIND       PRES   REMARKS
BATTLE CREEK   PTCLDY    66  55  67 S8        29.91F
BENTON HARBOR  PTCLDY    70  57  63 SE7       29.86F
BIG RAPIDS     CLOUDY    58  53  83 SE3       29.86F
COLDWATER      CLOUDY    66  52  59 SE7       29.93S
FREMONT        CLOUDY    64  53  68 SE7       29.84F
HOLLAND        PTCLDY    65  55  70 S7        29.86F
GRAND RAPIDS   PTCLDY    64  56  75 S8        29.87F
IONIA          FAIR      64  54  71 S8        29.88F
KALAMAZOO      MOCLDY    67  54  63 S5        29.90F
LUDINGTON      CLOUDY    64  56  75 SE7       29.80F
MARSHALL       MOCLDY    66  54  66 SE7       29.91F
MOUNT PLEASANT CLOUDY    62  54  76 S5        29.88F
MUSKEGON       MOCLDY    68  55  63 SE10      29.83F
SOUTH HAVEN    PTCLDY    68  57  68 S3        29.86F
$$
MIZ016>042-220900-
NORTHERN LOWER MICHIGAN

CITY           SKY/WX    TMP DP  RH WIND       PRES   REMARKS
ALPENA         CLEAR     52  52 100 CALM      29.88F FOG
BEAVER ISLAND  CLOUDY    60  53  77 SE6       29.82F
BELLAIRE       PTCLDY    51  49  95 CALM      29.83F
CADILLAC       CLOUDY    63  53  71 S8        29.85F
CHARLEVOIX     MOCLDY    57  51  78 SE6       29.85F
FRANKFORT      CLOUDY    65  53  65 SE6       29.81F
GAYLORD        PTCLDY    55  49  80 S7        29.86F
GRAYLING       PTCLDY    48  47  94 CALM        N/A
HARBOR SPRINGS MOCLDY    56  54  92 NE5       29.83F
HOUGHTON LAKE  MOCLDY    55  53  93 E3        29.89S
MANISTEE       TSTM      59  56  89 E3        29.83R
OSCODA         CLEAR     58  57  95 SW3       29.89S
PELLSTON       PTCLDY    53  49  86 CALM      29.85F
ROGERS CITY    CLOUDY    59  56  89 S8        29.85F
TRAVERSE CITY  CLOUDY    60  53  77 SW3       29.82F
$$
MIZ007>008-015-220900-
EASTERN UPPER MICHIGAN

CITY           SKY/WX    TMP DP  RH WIND       PRES   REMARKS
KINROSS        CLOUDY    55  50  83 SE8       29.85F
MACKINAC ISLAN CLOUDY    61  50  66 SE7       29.85R
NEWBERRY       CLOUDY    56  55  97 S6        29.82S
S. S. MARIE    CLEAR     55  51  86 E3        29.84F
MUNISING         N/A     60  56  86 S3        29.77S
$$
MIZ004>006-011>014-085-220900-
CENTRAL UPPER MICHIGAN

CITY           SKY/WX    TMP DP  RH WIND       PRES   REMARKS
MANISTIQUE     CLOUDY    57  54  89 SE3       29.80S
ESCANABA       CLOUDY    64  54  69 S10       29.78F
MENOMINEE      CLOUDY    65  53  65 S8        29.76F
SAWYER-GWINN   CLOUDY    59  54  83 S9        29.77F
$$
MIZ001>003-009>011-084-220900-
WESTERN UPPER MICHIGAN

CITY           SKY/WX    TMP DP  RH WIND       PRES   REMARKS
IRON MOUNTAIN  CLOUDY    62  53  72 E6        29.74F
HOUGHTON       LGT RAIN  57  53  86 S6        29.71F
COPPER HARBOR    N/A     58  54  86 SW7       29.71F
IRONWOOD       PTCLDY    65  55  70 S6        29.70S
$$

ABBREVIATIONS USED IN REMARKS
   TC - TEMPERATURE IN CELSIUS
  WCI - WIND CHILL INDEX
   HX - HEAT INDEX
  VSB - VISIBILITY





USA.gov is the U.S. government's official web portal to all federal, state and local government web resources and services.